Wind_Speed
59 69 66 68 69 67 64 60 57 56 55 54 53 52 50 48 48 48 50 50 45 45 45 47 48 46 45 43 42 42 44 42 43 42 41 38 37 36 38 41 41 38 40
54 54 65 67 68 69 66 63 61 60 57 56 57 56 55 54 52 53 53 52 51 47 49 51 49 46 45 45 43 41 46 43 43 43 44 41 36 37 39 40 43 41 41
56 56 56 61 68 67 66 67 66 64 61 60 59 59 59 58 56 56 54 56 54 53 53 47 47 48 47 49 45 47 43 46 44 43 44 42 41 39 42 44 41 42 42
57 60 58 58 57 60 66 64 64 65 63 62 63 62 58 56 57 55 54 51 52 50 49 48 48 50 52 51 50 50 46 46 45 46 47 43 40 42 46 49 45 45 41
62 59 52 56 52 54 55 60 62 61 60 60 59 56 57 57 58 57 56 52 53 59 59 58 52 52 53 51 47 50 50 48 46 49 47 45 45 46 48 51 51 50 47
64 63 64 64 59 56 54 53 56 58 56 55 56 58 59 60 61 58 57 57 62 61 57 52 54 54 51 50 52 51 52 49 51 50 47 48 47 47 52 54 56 53 54
56 57 58 61 64 60 53 54 53 56 56 58 55 63 65 60 62 62 61 58 56 57 56 56 59 59 57 57 56 55 52 53 52 51 52 51 50 52 52 55 58 62 63
64 59 54 52 52 57 58 57 57 59 58 61 62 60 61 63 61 57 55 56 58 61 61 63 65 65 63 62 60 61 58 56 57 58 58 58 56 55 58 59 62 65 67
53 54 54 51 49 52 52 54 51 52 54 54 54 56 59 61 59 60 58 59 59 61 59 61 61 59 61 64 61 61 60 62 63 61 60 61 62 62 61 62 65 69 72
53 51 51 49 46 46 48 48 48 49 51 51 54 58 60 59 61 59 57 62 65 59 61 62 60 63 60 59 55 53 43 55 55 62 65 58 63 66 62 67 70 72 71
60 64 58 52 52 49 51 51 49 48 50 52 55 57 55 56 56 62 62 67 67 66 66 67 68 70 65 60 55 55 56 57 66 58 64 67 69 69 73 71 73 73 75
53 46 49 59 58 54 53 56 51 52 51 54 56 59 59 62 65 70 70 72 71 69 66 70 61 59 63 61 61 69 65 70 72 74 65 71 74 76 76 80 77 78 80
46 49 54 48 46 57 61 59 60 62 61 65 65 66 66 68 73 73 71 68 70 71 69 67 69 74 70 68 77 81 81 80 72 69 76 75 76 80 83 80 83 84 88
59 58 54 56 57 57 53 57 60 65 67 60 64 70 74 73 66 72 69 70 71 74 71 78 80 80 85 77 81 86 83 75 72 77 77 80 84 86 90 89 86 89 96
72 69 65 65 65 62 57 59 60 57 62 66 66 61 59 67 79 72 68 70 76 69 85 79 88 84 78 80 85 83 80 79 80 82 85 89 91 94 95 97 95 103 112
67 70 69 64 60 58 57 61 60 62 62 61 62 65 66 67 66 68 74 79 83 85 91 80 72 83 80 87 84 83 84 91 91 92 94 94 97 101 103 109 109 111 97
76 78 78 72 77 69 67 70 69 67 65 69 68 73 74 75 79 77 78 78 86 77 82 78 78 84 86 91 91 95 96 98 100 97 99 103 105 111 106 101 99 99 96
88 86 79 77 73 80 72 80 78 73 78 84 83 87 83 91 96 87 92 80 83 89 77 87 89 96 93 95 100 103 107 103 102 108 119 111 104 104 103 102 99 94 90
88 85 87 84 81 81 80 85 84 90 90 96 101 91 87 95 93 83 103 83 87 87 87 95 93 95 101 107 108 113 122 119 122 106 104 102 104 101 97 95 94 93 93
91 93 92 95 92 95 92 97 93 98 104 100 106 101 96 84 91 95 91 86 90 93 89 100 105 110 113 117 122 118 116 107 104 105 104 101 101 98 94 94 94 93 94
108 104 102 102 105 107 112 108 109 109 110 102 104 107 98 107 91 86 86 91 97 103 104 113 117 124 123 122 111 104 100 102 103 97 98 94 93 94 93 95 93 92 91
110 115 114 121 113 114 111 104 86 86 84 92 94 103 99 93 99 101 110 113 113 117 124 123 122 119 102 101 99 99 99 97 98 91 88 95 96 99 93 91 90 89 93
67 75 81 92 90 94 96 95 94 95 96 107 108 105 109 115 114 116 122 120 114 113 116 113 103 96 100 96 96 94 89 88 88 89 90 96 96 95 91 88 91 94 94
37 42 49 57 65 78 85 90 95 100 101 104 107 109 108 113 111 110 112 111 105 96 97 89 93 95 88 85 85 85 86 87 89 88 88 91 91 92 94 94 94 90 89
33 41 49 57 64 71 78 82 86 90 97 102 106 105 106 107 110 104 102 92 87 85 90 89 81 78 77 77 78 80 81 82 84 86 86 87 87 91 96 92 87 89 84
32 34 37 42 48 53 58 64 68 71 73 76 79 81 81 81 79 81 83 82 76 75 74 74 73 72 72 73 76 77 78 80 81 81 82 87 91 92 89 89 86 77 71
Wind_Direction
260 254 252 253 255 257 260 262 264 268 270 272 275 277 277 281 284 285 288 293 291 292 294 295 298 298 300 300 295 295 302 304 306 304 307 307 315 315 316 317 318 312 303
254 260 256 254 256 256 257 259 263 266 268 270 272 275 278 280 282 285 288 291 291 293 296 294 295 296 294 298 290 289 296 299 302 301 305 304 305 308 310 312 309 309 300
251 251 252 259 259 257 258 258 260 263 265 267 270 273 276 280 283 285 287 290 291 290 295 295 294 293 289 295 286 288 291 293 295 293 302 300 300 296 295 298 303 303 296
242 251 253 251 255 260 259 259 261 262 263 266 270 273 276 277 280 283 286 290 289 291 290 291 292 291 294 292 289 285 290 291 290 292 296 292 294 291 292 291 296 296 294
245 244 251 249 253 255 257 260 261 264 266 269 271 272 274 279 281 282 285 285 285 288 288 291 285 288 289 291 282 287 290 290 286 291 291 289 289 287 288 286 287 294 293
242 245 245 240 254 253 253 257 260 261 264 267 267 269 273 277 280 280 282 282 287 286 286 284 287 288 289 286 284 284 288 283 286 287 287 285 283 283 282 283 281 288 291
241 237 246 245 251 250 249 256 257 262 263 266 268 268 274 277 276 277 280 281 281 283 283 288 289 288 287 285 284 283 284 282 286 286 284 284 281 280 282 281 279 282 288
241 241 241 243 246 251 248 251 254 256 260 264 266 267 270 271 274 274 277 279 284 285 288 290 290 290 288 282 283 284 284 284 287 284 283 283 284 282 283 283 281 283 286
233 237 243 246 247 246 250 253 256 258 259 261 262 266 268 270 271 277 283 282 286 287 289 290 290 291 289 284 285 285 287 287 286 286 287 286 285 286 286 283 284 286 285
238 236 235 239 238 243 247 251 258 258 259 260 263 265 271 273 276 281 282 284 286 286 291 295 294 299 297 292 286 286 297 299 290 288 284 292 291 286 287 284 286 283 283
246 243 241 236 240 248 250 250 255 257 259 263 267 272 275 278 282 284 286 288 284 287 291 293 295 296 299 297 296 291 293 293 300 291 286 281 286 280 280 285 284 284 286
240 238 250 245 245 247 248 254 254 258 261 266 268 270 280 282 281 289 283 284 286 291 292 296 302 304 298 287 292 303 288 298 296 288 281 283 279 277 276 280 283 283 285
229 236 241 243 241 243 247 258 259 267 263 272 269 275 281 283 285 283 280 286 289 292 291 295 299 300 298 293 301 301 303 299 293 289 282 281 283 279 279 283 286 285 284
233 239 244 249 249 254 253 247 255 259 267 268 272 280 280 276 272 280 285 289 289 290 290 294 294 294 295 296 301 303 301 294 292 289 287 287 286 283 283 282 283 285 286
240 241 246 252 257 260 263 264 265 262 266 275 277 271 269 278 284 279 279 286 289 286 291 288 290 296 296 297 302 301 297 298 292 293 290 285 287 289 287 284 282 287 292
242 245 250 252 257 263 264 267 267 271 274 275 274 275 277 277 280 282 283 289 290 289 290 292 288 297 296 298 302 299 296 298 296 294 292 289 288 286 285 287 284 287 287
247 251 254 254 261 263 264 269 272 272 274 277 279 282 281 282 286 291 291 295 292 294 292 293 292 299 299 303 297 299 298 297 295 291 290 288 286 288 288 287 287 288 288
250 256 253 257 258 262 267 272 269 275 274 279 282 282 284 285 289 291 290 294 290 293 291 298 297 301 300 300 297 297 297 294 292 290 291 293 292 292 294 292 290 291 293
250 253 255 258 259 262 267 269 271 273 276 280 281 284 287 287 287 290 290 292 293 293 292 299 298 298 298 295 295 294 294 294 295 291 292 291 292 292 294 294 292 294 294
251 248 254 259 260 264 266 269 269 269 273 276 278 283 281 286 291 291 290 292 292 293 292 293 295 295 297 297 296 296 295 291 293 292 292 290 290 294 296 296 296 296 295
252 252 253 255 259 263 267 267 271 274 277 278 279 284 284 288 286 290 290 290 291 294 294 293 296 295 296 297 293 291 292 291 291 292 292 294 295 296 297 297 297 296 296
255 252 254 255 261 265 270 273 275 274 278 276 275 278 283 279 284 284 286 285 286 290 293 292 293 293 294 290 291 289 287 291 291 296 296 296 297 297 299 298 299 298 297
255 256 259 260 262 263 268 269 269 268 269 277 279 278 279 283 283 281 284 289 290 291 290 289 290 291 293 292 291 290 291 292 296 297 296 295 298 300 300 301 301 300 298
282 277 273 271 268 267 269 272 274 274 275 276 278 282 283 282 283 284 285 285 287 288 288 288 295 291 289 290 291 293 295 296 294 295 297 298 299 300 302 303 303 301 300
275 270 270 271 272 272 272 273 274 275 275 276 277 279 279 279 278 283 281 285 282 282 280 290 292 292 293 294 295 295 295 295 297 299 300 299 301 303 303 304 304 304 302
288 284 282 281 279 278 278 277 275 275 277 278 278 278 278 279 279 280 282 283 285 286 288 290 292 293 294 294 294 295 297 298 299 300 301 302 305 305 305 306 306 305 303
Height
10838 10841 10845 10846 10847 10854 10860 10864 10867 10869 10872 10874 10876 10877 10878 10880 10881 10882 10882 10882 10881 10881 10880 10879 10877 10876 10874 10873 10871 10869 10867 10865 10863 10861 10861 10858 10855 10852 10849 10846 10844 10842 10840
10828 10833 10837 10836 10837 10843 10850 10854 10857 10860 10862 10864 10867 10868 10869 10871 10872 10872 10873 10873 10872 10871 10870 10869 10868 10866 10865 10864 10862 10860 10858 10856 10854 10852 10851 10850 10848 10846 10844 10842 10838 10836 10834
10818 10823 10827 10827 10828 10834 10839 10843 10847 10850 10853 10854 10857 10859 10860 10861 10862 10862 10863 10863 10862 10861 10860 10859 10859 10857 10856 10854 10852 10850 10848 10846 10845 10844 10843 10841 10839 10837 10836 10834 10832 10830 10827
10807 10812 10816 10816 10817 10823 10828 10832 10836 10839 10841 10844 10847 10849 10850 10851 10852 10853 10854 10853 10853 10851 10851 10850 10849 10848 10847 10844 10842 10839 10838 10836 10835 10835 10833 10832 10829 10828 10826 10825 10823 10821 10819
10796 10801 10805 10805 10807 10812 10816 10821 10826 10830 10832 10835 10838 10839 10840 10841 10842 10843 10843 10843 10842 10842 10842 10841 10839 10836 10835 10834 10832 10829 10827 10826 10825 10824 10822 10820 10818 10816 10815 10814 10813 10811 10810
10783 10787 10790 10792 10798 10802 10806 10811 10816 10820 10823 10826 10827 10829 10829 10830 10831 10832 10832 10831 10831 10831 10830 10829 10827 10825 10823 10822 10819 10817 10815 10814 10812 10811 10810 10808 10807 10805 10803 10801 10799 10798 10797
10769 10774 10779 10784 10788 10793 10797 10800 10804 10809 10813 10815 10816 10817 10818 10818 10818 10821 10822 10820 10819 10819 10818 10818 10815 10813 10811 10809 10806 10805 10803 10802 10800 10797 10795 10794 10792 10791 10789 10787 10786 10784 10783
10757 10765 10771 10775 10779 10783 10785 10790 10793 10796 10801 10803 10804 10804 10805 10805 10806 10808 10810 10809 10810 10808 10806 10805 10803 10801 10799 10796 10793 10791 10791 10789 10787 10783 10781 10780 10778 10775 10774 10773 10771 10770 10768
10748 10755 10762 10768 10770 10773 10777 10781 10783 10786 10788 10790 10791 10790 10791 10794 10795 10799 10800 10799 10799 10795 10794 10791 10789 10787 10784 10783 10781 10778 10777 10775 10772 10769 10767 10765 10763 10760 10759 10757 10755 10753 10750
10737 10742 10753 10758 10760 10764 10768 10771 10773 10775 10776 10777 10778 10778 10781 10783 10783 10786 10788 10789 10787 10783 10780 10778 10774 10773 10770 10767 10765 10762 10761 10761 10758 10753 10751 10750 10747 10743 10741 10738 10736 10734 10732
10726 10730 10743 10748 10752 10755 10759 10763 10764 10764 10766 10767 10768 10771 10771 10771 10771 10771 10771 10774 10771 10768 10768 10763 10760 10759 10758 10756 10752 10750 10750 10747 10745 10739 10734 10730 10727 10722 10719 10717 10715 10713 10710
10721 10723 10725 10737 10744 10749 10754 10757 10755 10755 10755 10757 10758 10759 10761 10761 10759 10758 10756 10753 10754 10753 10752 10749 10747 10744 10743 10741 10738 10737 10735 10730 10726 10720 10713 10707 10703 10699 10696 10695 10692 10689 10685
10713 10716 10716 10725 10732 10738 10745 10748 10746 10747 10746 10747 10747 10748 10747 10748 10748 10746 10742 10741 10740 10738 10736 10734 10731 10729 10728 10725 10722 10716 10711 10708 10702 10698 10692 10685 10682 10678 10675 10670 10667 10664 10661
10706 10708 10710 10715 10723 10726 10730 10732 10734 10734 10736 10736 10737 10738 10739 10736 10735 10735 10731 10730 10727 10724 10721 10720 10716 10713 10710 10703 10700 10695 10688 10682 10678 10672 10666 10662 10657 10652 10649 10644 10640 10637 10633
10700 10702 10705 10706 10708 10712 10714 10717 10718 10719 10720 10722 10722 10722 10720 10720 10721 10719 10717 10713 10712 10705 10704 10700 10696 10693 10689 10683 10677 10671 10665 10656 10650 10644 10642 10638 10633 10627 10620 10614 10610 10603 10602
10693 10696 10698 10699 10700 10701 10702 10703 10705 10705 10705 10704 10705 10706 10705 10705 10705 10702 10702 10697 10691 10690 10685 10679 10673 10669 10663 10659 10655 10647 10640 10634 10626 10622 10618 10611 10604 10598 10594 10587 10580 10573 10565
10685 10687 10686 10687 10690 10689 10690 10689 10690 10690 10690 10691 10690 10691 10688 10687 10683 10683 10680 10676 10671 10668 10663 10657 10655 10651 10645 10639 10630 10624 10618 10612 10603 10596 10592 10584 10577 10571 10560 10552 10546 10539 10531
10678 10679 10675 10677 10677 10675 10676 10677 10674 10673 10675 10675 10674 10673 10671 10670 10670 10664 10662 10659 10655 10649 10644 10638 10631 10627 10622 10616 10607 10599 10593 10584 10574 10568 10559 10551 10542 10533 10526 10519 10511 10504 10495
10670 10671 10666 10663 10667 10665 10667 10663 10663 10660 10657 10660 10654 10654 10653 10650 10648 10646 10647 10639 10635 10629 10624 10617 10608 10603 10599 10593 10584 10575 10567 10557 10549 10538 10526 10517 10509 10500 10495 10489 10480 10471 10463
10660 10659 10660 10651 10653 10652 10652 10650 10649 10645 10642 10642 10639 10636 10634 10634 10631 10627 10624 10618 10614 10611 10603 10598 10592 10584 10576 10568 10557 10545 10532 10524 10513 10508 10498 10490 10480 10472 10466 10459 10450 10443 10435
10644 10648 10646 10644 10636 10635 10636 10636 10632 10632 10626 10625 10622 10619 10619 10617 10611 10609 10605 10599 10594 10588 10581 10576 10567 10558 10549 10539 10527 10517 10506 10495 10485 10482 10468 10460 10452 10445 10440 10432 10425 10414 10404
10626 10628 10630 10626 10626 10623 10620 10619 10615 10615 10613 10609 10608 10604 10601 10594 10594 10587 10584 10578 10572 10565 10558 10551 10542 10532 10522 10511 10503 10494 10486 10475 10461 10458 10447 10427 10425 10413 10412 10402 10393 10384 10374
10611 10611 10610 10609 10606 10604 10603 10601 10598 10595 10595 10592 10587 10584 10581 10578 10571 10566 10560 10555 10548 10540 10534 10524 10518 10507 10499 10491 10481 10471 10462 10453 10440 10431 10427 10408 10397 10384 10379 10374 10366 10355 10342
10598 10597 10596 10593 10591 10593 10590 10586 10582 10578 10575 10571 10566 10562 10558 10554 10549 10543 10538 10533 10525 10517 10511 10500 10494 10485 10475 10468 10459 10449 10440 10429 10418 10410 10404 10390 10378 10365 10350 10345 10337 10324 10312
10590 10588 10585 10583 10581 10578 10575 10570 10565 10560 10556 10551 10546 10541 10537 10531 10527 10519 10518 10511 10502 10498 10490 10480 10471 10464 10456 10449 10440 10430 10421 10411 10398 10387 10379 10366 10357 10345 10328 10318 10310 10298 10283
10581 10578 10575 10572 10568 10563 10557 10552 10546 10540 10535 10530 10525 10519 10515 10510 10504 10500 10497 10490 10484 10478 10469 10461 10454 10446 10438 10430 10422 10411 10400 10388 10379 10368 10357 10343 10332 10323 10306 10290 10284 10274 10260